Charlotte, NC

2:13 AM EDT on October 21, 2017 (GMT -0400)
Charlotte-Douglas International

Weather History for KCLT - November, 2011

Change the Weather History Date:

Tuesday, November 22, 2011

  Actual Average Record
Temperature  
Mean Temperature 64 °F 49 °F  
Max Temperature 76 °F 60 °F 76 °F (2011)
Min Temperature 52 °F 37 °F 13 °F (2008)
Degree Days  
Heating Degree Days 1 16  
Month to date heating degree days 281 288  
Since 1 July heating degree days 497 494  
Cooling Degree Days 0 0  
Month to date cooling degree days 5 0  
Year to date cooling degree days 1928 1513  
Growing Degree Days 14 (Base 50)    
Moisture  
Dew Point 58 °F    
Average Humidity 80    
Maximum Humidity 100    
Minimum Humidity 60    
Precipitation  
Precipitation 0.15 in 0.11 in 1.68 in (2006)
Month to date precipitation 2.22 2.26  
Year to date precipitation 39.99 37.50  
Snow  
Snow 0.00 in 0.00 in T in (1989)
Month to date snowfall 0.0 0.1  
Since 1 July snowfall 0.0 0.1  
Since 1 September snowfall 0.0 0.1  
Snow Depth 0.00 in    
Sea Level Pressure  
Sea Level Pressure 30.10 in    
Wind  
Wind Speed 8 mph (South)    
Max Wind Speed 23 mph    
Max Gust Speed 30 mph    
Visibility 5 miles    
Events Fog , Rain    
T = Trace of Precipitation, MM = Missing Value Source: NWS Daily Summary

Daily Weather History Graph

Daily Weather History Graph

Search for Another Location

Airport or City:

Trip Planner

Search our weather history database for the weather conditions in past years. The results will help you decide how hot, cold, wet, or windy it might be!

Date:

Astronomy

Nov. 22, 2011 Rise Set
Actual Time 7:05 AM EST 5:14 PM EST
Civil Twilight 6:37 AM EST 5:41 PM EST
Nautical Twilight 6:06 AM EST 6:12 PM EST
Astronomical Twilight 5:36 AM EST 6:42 PM EST
Moon 3:58 AM EST (11/22) 3:09 PM EST (11/22)
Length of Visible Light 11h 03m
Length of Day
10h 08m
Waning Crescent, 9% of the Moon is Illuminated
Nov 22
Waning Crescent
Nov 25
New
Dec 2
First Quarter
Dec 10
Full
Dec 17
Last Quarter

Hourly Weather History & Observations

Time (EST) Temp. Dew Point Humidity Pressure Visibility Wind Dir Wind Speed Gust Speed Precip Events Conditions
12:52 AM 57.9 °F 57.0 °F 97% 30.18 in 7.0 mi West 3.5 mph - N/A   Overcast
1:05 AM 57.2 °F 57.2 °F 100% 30.19 in 7.0 mi WNW 3.5 mph - N/A   Overcast
1:52 AM 55.9 °F 55.0 °F 97% 30.17 in 6.0 mi Calm Calm - N/A   Overcast
2:52 AM 57.0 °F 55.9 °F 96% 30.16 in 3.0 mi Calm Calm - N/A   Overcast
3:00 AM 53.6 °F 53.6 °F 100% 30.17 in 1.2 mi Calm Calm - N/A   Overcast
3:52 AM 55.9 °F 55.0 °F 97% 30.16 in 3.0 mi Calm Calm - N/A   Mostly Cloudy
4:52 AM 55.9 °F 54.0 °F 93% 30.15 in 1.5 mi Calm Calm - N/A   Mostly Cloudy
5:03 AM 55.4 °F 55.4 °F 100% 30.17 in 1.0 mi Calm Calm - N/A   Overcast
5:52 AM 55.0 °F 54.0 °F 96% 30.16 in 1.2 mi Calm Calm - N/A   Mostly Cloudy
6:14 AM 53.6 °F 53.6 °F 100% 30.18 in 0.8 mi Calm Calm - N/A   Mostly Cloudy
6:52 AM 53.1 °F 53.1 °F 100% 30.18 in 0.8 mi Calm Calm - N/A   Mostly Cloudy
7:10 AM 53.6 °F 53.6 °F 100% 30.19 in 0.5 mi SSE 4.6 mph - N/A Fog Fog
7:52 AM 55.9 °F 55.9 °F 100% 30.18 in 3.0 mi Calm Calm - N/A   Mostly Cloudy
8:38 AM 59.0 °F 57.2 °F 94% 30.19 in 0.5 mi SSE 3.5 mph - N/A   Mostly Cloudy
8:52 AM 59.0 °F 57.9 °F 96% 30.17 in 0.5 mi SSE 4.6 mph - N/A   Mostly Cloudy
8:59 AM 59.0 °F 57.2 °F 94% 30.19 in 0.5 mi SSE 4.6 mph - N/A   Mostly Cloudy
9:23 AM 60.8 °F 59.0 °F 94% 30.19 in 0.5 mi SSE 4.6 mph - N/A   Overcast
9:50 AM 62.6 °F 60.8 °F 94% 30.19 in 3.0 mi SSE 4.6 mph - N/A   Mostly Cloudy
9:52 AM 63.0 °F 60.1 °F 90% 30.18 in 3.0 mi Variable 4.6 mph - N/A   Scattered Clouds
10:52 AM 66.9 °F 60.1 °F 79% 30.16 in 10.0 mi SSW 9.2 mph - N/A   Clear
11:52 AM 69.1 °F 60.1 °F 73% 30.12 in 10.0 mi SSW 5.8 mph - N/A   Mostly Cloudy
12:52 PM 73.9 °F 60.1 °F 62% 30.09 in 10.0 mi SSW 11.5 mph - N/A   Scattered Clouds
1:52 PM 75.0 °F 60.1 °F 60% 30.05 in 10.0 mi SW 9.2 mph - N/A   Mostly Cloudy
2:52 PM 73.9 °F 59.0 °F 59% 30.02 in 10.0 mi SSW 10.4 mph - N/A   Mostly Cloudy
3:52 PM 73.9 °F 59.0 °F 59% 30.01 in 10.0 mi SSW 11.5 mph - N/A   Mostly Cloudy
4:52 PM 71.6 °F 57.2 °F 60% 30.03 in 10.0 mi South 9.2 mph - N/A   Mostly Cloudy
5:52 PM 69.1 °F 59.0 °F 70% 29.99 in 10.0 mi South 9.2 mph - N/A   Scattered Clouds
6:52 PM 70.0 °F 59.0 °F 68% 29.98 in 10.0 mi South 10.4 mph - N/A   Mostly Cloudy
7:52 PM 69.8 °F 59.0 °F 68% 29.98 in 10.0 mi SSE 11.5 mph - N/A   Overcast
8:52 PM 66.9 °F 61.0 °F 81% 29.95 in 5.0 mi South 17.3 mph 25.3 mph 0.03 in Rain Heavy Rain
9:52 PM 66.9 °F 60.1 °F 79% 29.92 in 10.0 mi South 17.3 mph - 0.01 in   Mostly Cloudy
10:52 PM 66.9 °F 60.1 °F 79% 29.90 in 10.0 mi South 18.4 mph - N/A   Overcast
11:19 PM 66.2 °F 60.8 °F 83% 29.92 in 10.0 mi South 17.3 mph 26.5 mph 0.00 in Rain Light Rain
11:52 PM 64.9 °F 62.1 °F 90% 29.88 in 5.0 mi South 18.4 mph - 0.09 in Rain Rain